KLM939 EHAM-EGPF

Flight info

Callsign KLM939
Flight time 1h 5m
Altitude 34000
Route BERGI L602 SUPUR P1 GODOS DCT ROXAT DCT BAZNA DCT ANMAZ DCT EWOKE DCT AGPED
Aircraft B738/M-SDE2E3FGHIRWXY/LB1

Departure

Time 2026-05-07 09:51
Airport Amsterdam Airport Schiphol (EHAM)

Arrival

Time 2026-05-07 10:57
Airport Glasgow Airport (EGPF)
Time Latitude Longitude Altitude Speed Heading
2026-05-07 09:11 52.30426 4.76598 -2 ft 0 kts 55°
2026-05-07 09:11 52.30427 4.76597 -2 ft 0 kts 58°
2026-05-07 09:11 52.30427 4.76598 -2 ft 0 kts 57°
2026-05-07 09:33 52.30424 4.76589 -2 ft 4 kts 51°
2026-05-07 09:33 52.30412 4.76560 -2 ft 4 kts 81°
2026-05-07 09:33 52.30419 4.76527 -2 ft 4 kts 142°
2026-05-07 09:33 52.30438 4.76506 -2 ft 1 kts 147°
2026-05-07 09:34 52.30439 4.76505 -2 ft 0 kts 147°
2026-05-07 09:37 52.30432 4.76512 -2 ft 3 kts 147°
2026-05-07 09:37 52.30400 4.76545 -2 ft 8 kts 148°
2026-05-07 09:37 52.30353 4.76615 -2 ft 10 kts 110°
2026-05-07 09:38 52.30320 4.76735 -2 ft 14 kts 132°
2026-05-07 09:38 52.30328 4.76866 -2 ft 13 kts 57°
2026-05-07 09:38 52.30375 4.76987 -2 ft 12 kts 57°
2026-05-07 09:38 52.30419 4.77103 -2 ft 12 kts 58°
2026-05-07 09:39 52.30463 4.77217 -2 ft 12 kts 57°
2026-05-07 09:39 52.30508 4.77333 -2 ft 13 kts 58°
2026-05-07 09:39 52.30558 4.77462 -2 ft 14 kts 57°
2026-05-07 09:39 52.30624 4.77573 -2 ft 13 kts 25°
2026-05-07 09:40 52.30716 4.77593 -2 ft 14 kts
2026-05-07 09:40 52.30817 4.77603 -2 ft 15 kts
2026-05-07 09:40 52.30926 4.77614 -2 ft 16 kts
2026-05-07 09:40 52.31041 4.77624 -2 ft 17 kts
2026-05-07 09:41 52.31159 4.77634 -2 ft 17 kts
2026-05-07 09:41 52.31272 4.77644 -2 ft 16 kts
2026-05-07 09:41 52.31379 4.77655 -2 ft 15 kts
2026-05-07 09:41 52.31477 4.77610 -2 ft 16 kts 324°
2026-05-07 09:42 52.31558 4.77471 -2 ft 19 kts 300°
2026-05-07 09:42 52.31574 4.77248 -2 ft 21 kts 266°
2026-05-07 09:42 52.31566 4.77018 -2 ft 20 kts 266°
2026-05-07 09:42 52.31558 4.76795 -2 ft 19 kts 266°
2026-05-07 09:43 52.31551 4.76579 -2 ft 19 kts 267°
2026-05-07 09:43 52.31544 4.76369 -2 ft 18 kts 266°
2026-05-07 09:43 52.31536 4.76168 -2 ft 17 kts 266°
2026-05-07 09:43 52.31530 4.75968 -2 ft 19 kts 267°
2026-05-07 09:44 52.31521 4.75711 -2 ft 26 kts 266°
2026-05-07 09:44 52.31511 4.75412 -2 ft 26 kts 267°
2026-05-07 09:44 52.31503 4.75132 4 ft 385 kts 268°
2026-05-07 09:44 52.31496 4.74943 -2 ft 0 kts 267°
2026-05-07 09:45 52.31493 4.74880 -2 ft 13 kts 266°
2026-05-07 09:45 52.31486 4.74666 -2 ft 24 kts 266°
2026-05-07 09:45 52.31477 4.74401 -2 ft 23 kts 266°
2026-05-07 09:45 52.31434 4.74166 -2 ft 22 kts 216°
2026-05-07 09:46 52.31285 4.74128 -2 ft 22 kts 183°
2026-05-07 09:46 52.31137 4.74114 -2 ft 21 kts 183°
2026-05-07 09:46 52.30994 4.74101 -2 ft 20 kts 183°
2026-05-07 09:46 52.30855 4.74089 -2 ft 20 kts 183°
2026-05-07 09:47 52.30720 4.74077 -2 ft 19 kts 183°
2026-05-07 09:47 52.30590 4.74065 -2 ft 18 kts 183°
2026-05-07 09:47 52.30463 4.74055 -2 ft 18 kts 182°
2026-05-07 09:47 52.30345 4.74021 -2 ft 16 kts 202°
2026-05-07 09:48 52.30278 4.73974 -2 ft 10 kts 203°
2026-05-07 09:48 52.30221 4.73914 -2 ft 10 kts 217°
2026-05-07 09:48 52.30188 4.73813 -3 ft 11 kts 271°
2026-05-07 09:48 52.30232 4.73741 -4 ft 10 kts 355°
2026-05-07 09:49 52.30251 4.73742 -5 ft 0 kts
2026-05-07 09:50 52.30363 4.73753 -5 ft 45 kts
2026-05-07 09:51 52.30900 4.73801 -2 ft 108 kts
2026-05-07 09:51 52.31821 4.73883 10 ft 157 kts
2026-05-07 09:51 52.32947 4.73998 483 ft 167 kts
2026-05-07 09:51 52.34147 4.73920 1023 ft 181 kts 345°
2026-05-07 09:52 52.35358 4.73139 1568 ft 191 kts 339°
2026-05-07 09:52 52.36623 4.72440 2194 ft 202 kts 343°
2026-05-07 09:52 52.38032 4.71698 2443 ft 222 kts 343°
2026-05-07 09:52 52.39538 4.70892 2866 ft 231 kts 343°
2026-05-07 09:53 52.41106 4.70062 3244 ft 246 kts 343°
2026-05-07 09:53 52.42778 4.69178 3736 ft 257 kts 342°
2026-05-07 09:53 52.44387 4.67913 4604 ft 257 kts 329°
2026-05-07 09:53 52.45881 4.66321 5445 ft 259 kts 326°
2026-05-07 09:54 52.47369 4.64688 6152 ft 263 kts 326°
2026-05-07 09:54 52.48916 4.63007 6823 ft 269 kts 326°
2026-05-07 09:54 52.50493 4.61317 7546 ft 273 kts 326°
2026-05-07 09:54 52.52101 4.59616 8260 ft 276 kts 327°
2026-05-07 09:55 52.53731 4.57906 8993 ft 280 kts 327°
2026-05-07 09:55 52.55387 4.56178 9686 ft 284 kts 327°
2026-05-07 09:55 52.57016 4.54306 10352 ft 288 kts 319°
2026-05-07 09:55 52.58541 4.51993 10554 ft 310 kts 315°
2026-05-07 09:56 52.60111 4.49404 10740 ft 329 kts 314°
2026-05-07 09:56 52.61743 4.46676 11236 ft 337 kts 314°
2026-05-07 09:56 52.63385 4.43950 11866 ft 342 kts 314°
2026-05-07 09:56 52.65070 4.41177 12590 ft 343 kts 315°
2026-05-07 09:57 52.66767 4.38406 13372 ft 345 kts 315°
2026-05-07 09:57 52.68492 4.35602 13989 ft 351 kts 315°
2026-05-07 09:57 52.70236 4.32779 14699 ft 352 kts 315°
2026-05-07 09:57 52.71989 4.29944 15388 ft 355 kts 315°
2026-05-07 09:58 52.73767 4.27068 15995 ft 360 kts 315°
2026-05-07 09:58 52.75565 4.24161 16571 ft 366 kts 315°
2026-05-07 09:58 52.77392 4.21203 17214 ft 370 kts 315°
2026-05-07 09:58 52.79233 4.18220 17916 ft 371 kts 315°
2026-05-07 09:59 52.81084 4.15215 18554 ft 374 kts 315°
2026-05-07 09:59 52.82948 4.12189 19050 ft 379 kts 315°
2026-05-07 09:59 52.84815 4.09152 19580 ft 382 kts 315°
2026-05-07 09:59 52.86714 4.06060 20210 ft 383 kts 315°
2026-05-07 10:00 52.88616 4.02958 20758 ft 387 kts 315°
2026-05-07 10:00 52.90546 3.99807 21220 ft 392 kts 315°
2026-05-07 10:00 52.92497 3.96618 21714 ft 396 kts 315°
2026-05-07 10:00 52.94465 3.93395 22223 ft 399 kts 315°
2026-05-07 10:01 52.96446 3.90148 22762 ft 402 kts 315°
2026-05-07 10:01 52.98440 3.86875 23239 ft 406 kts 315°
2026-05-07 10:01 53.00456 3.83560 23687 ft 410 kts 315°
2026-05-07 10:01 53.02459 3.80263 24093 ft 412 kts 315°
2026-05-07 10:02 53.04500 3.76900 24534 ft 414 kts 315°
2026-05-07 10:02 53.06549 3.73517 24964 ft 416 kts 316°
2026-05-07 10:02 53.08605 3.70118 25378 ft 418 kts 316°
2026-05-07 10:02 53.10668 3.66700 25754 ft 421 kts 316°
2026-05-07 10:03 53.12748 3.63252 26149 ft 423 kts 316°
2026-05-07 10:03 53.14837 3.59784 26541 ft 425 kts 316°
2026-05-07 10:03 53.16935 3.56295 26913 ft 427 kts 316°
2026-05-07 10:03 53.19047 3.52779 27250 ft 431 kts 316°
2026-05-07 10:04 53.21171 3.49237 27605 ft 433 kts 316°
2026-05-07 10:04 53.23301 3.45680 28004 ft 434 kts 316°
2026-05-07 10:04 53.25324 3.42016 28345 ft 437 kts 309°
2026-05-07 10:04 53.27047 3.37810 28678 ft 440 kts 304°
2026-05-07 10:05 53.28685 3.33472 29011 ft 443 kts 303°
2026-05-07 10:05 53.30321 3.29099 29323 ft 445 kts 303°
2026-05-07 10:05 53.31972 3.24711 29636 ft 447 kts 304°
2026-05-07 10:05 53.33641 3.20319 29952 ft 449 kts 304°
2026-05-07 10:06 53.35327 3.15905 30223 ft 451 kts 304°
2026-05-07 10:06 53.37023 3.11476 30457 ft 453 kts 304°
2026-05-07 10:06 53.38725 3.07026 30741 ft 453 kts 304°
2026-05-07 10:06 53.40420 3.02583 31081 ft 452 kts 304°
2026-05-07 10:07 53.42178 2.98243 31433 ft 450 kts 309°
2026-05-07 10:07 53.44133 2.94243 31747 ft 449 kts 312°
2026-05-07 10:07 53.46182 2.90290 32041 ft 449 kts 313°
2026-05-07 10:07 53.48251 2.86363 32405 ft 447 kts 313°
2026-05-07 10:08 53.50295 2.82471 32935 ft 441 kts 313°
2026-05-07 10:08 53.52305 2.78605 33433 ft 437 kts 313°
2026-05-07 10:08 53.54258 2.74706 33830 ft 436 kts 308°
2026-05-07 10:08 53.55951 2.70484 34111 ft 437 kts 304°
2026-05-07 10:09 53.57561 2.66097 34097 ft 443 kts 303°
2026-05-07 10:09 53.60757 2.57099 34120 ft 452 kts 303°
2026-05-07 10:10 53.64038 2.47935 34120 ft 461 kts 303°
2026-05-07 10:10 53.67381 2.38713 34112 ft 465 kts 303°
2026-05-07 10:11 53.70765 2.29404 34107 ft 465 kts 303°
2026-05-07 10:11 53.74139 2.20099 34112 ft 464 kts 303°
2026-05-07 10:12 53.77497 2.10800 34109 ft 463 kts 303°
2026-05-07 10:12 53.80834 2.01517 34112 ft 461 kts 303°
2026-05-07 10:13 53.84156 1.92246 34116 ft 460 kts 302°
2026-05-07 10:13 53.87466 1.82973 34118 ft 459 kts 302°
2026-05-07 10:14 53.90739 1.73772 34117 ft 459 kts 302°
2026-05-07 10:14 53.94027 1.64491 34118 ft 459 kts 302°
2026-05-07 10:15 53.97305 1.55201 34120 ft 458 kts 302°
2026-05-07 10:15 54.00572 1.45908 34121 ft 458 kts 301°
2026-05-07 10:16 54.03828 1.36615 34110 ft 457 kts 301°
2026-05-07 10:16 54.07072 1.27320 34115 ft 456 kts 301°
2026-05-07 10:17 54.10306 1.18019 34111 ft 456 kts 301°
2026-05-07 10:17 54.13515 1.08780 34112 ft 456 kts 302°
2026-05-07 10:18 54.16727 0.99475 34112 ft 455 kts 301°
2026-05-07 10:18 54.19884 0.90109 34108 ft 455 kts 301°
2026-05-07 10:19 54.23121 0.80833 34108 ft 454 kts 302°
2026-05-07 10:19 54.26313 0.71513 34110 ft 454 kts 301°
2026-05-07 10:20 54.29470 0.62188 34098 ft 452 kts 301°
2026-05-07 10:20 54.32590 0.52950 34099 ft 451 kts 300°
2026-05-07 10:21 54.35729 0.43636 34099 ft 453 kts 300°
2026-05-07 10:21 54.38889 0.34231 34101 ft 457 kts 300°
2026-05-07 10:22 54.42062 0.24753 34100 ft 459 kts 300°
2026-05-07 10:22 54.44697 0.16854 34087 ft 459 kts 300°
2026-05-07 10:23 54.47857 0.07345 34087 ft 458 kts 300°
2026-05-07 10:23 54.51004 -0.02164 34107 ft 456 kts 299°
2026-05-07 10:24 54.54126 -0.11632 34080 ft 454 kts 299°
2026-05-07 10:24 54.57171 -0.20902 34067 ft 435 kts 299°
2026-05-07 10:25 54.60091 -0.29828 34078 ft 425 kts 298°
2026-05-07 10:25 54.62985 -0.38705 34091 ft 425 kts 299°
2026-05-07 10:26 54.65909 -0.47712 34085 ft 434 kts 299°
2026-05-07 10:26 54.68857 -0.56835 34086 ft 434 kts 298°
2026-05-07 10:27 54.71794 -0.65937 34062 ft 432 kts 298°
2026-05-07 10:27 54.74706 -0.74991 34060 ft 429 kts 298°
2026-05-07 10:28 54.77601 -0.84037 34076 ft 430 kts 298°
2026-05-07 10:28 54.80469 -0.93034 34056 ft 429 kts 298°
2026-05-07 10:29 54.83350 -1.02099 34054 ft 429 kts 298°
2026-05-07 10:29 54.86223 -1.11185 33725 ft 432 kts 297°
2026-05-07 10:30 54.89087 -1.20268 32996 ft 428 kts 298°
2026-05-07 10:30 54.90519 -1.24816 32580 ft 430 kts 297°
2026-05-07 10:30 54.91953 -1.29399 32152 ft 433 kts 298°
2026-05-07 10:30 54.93396 -1.34005 31726 ft 436 kts 298°
2026-05-07 10:31 54.94846 -1.38647 31315 ft 438 kts 298°
2026-05-07 10:31 54.96301 -1.43315 30884 ft 440 kts 298°
2026-05-07 10:31 54.97761 -1.48005 30458 ft 441 kts 297°
2026-05-07 10:31 54.99202 -1.52644 30033 ft 442 kts 297°
2026-05-07 10:32 55.00655 -1.57348 29554 ft 439 kts 298°
2026-05-07 10:32 55.02098 -1.61991 29109 ft 434 kts 297°
2026-05-07 10:32 55.03524 -1.66619 28664 ft 434 kts 297°
2026-05-07 10:32 55.04960 -1.71278 28195 ft 438 kts 297°
2026-05-07 10:33 55.06405 -1.75972 27761 ft 440 kts 297°
2026-05-07 10:33 55.07857 -1.80697 27308 ft 443 kts 297°
2026-05-07 10:33 55.09310 -1.85436 26859 ft 444 kts 297°
2026-05-07 10:33 55.10769 -1.90203 26409 ft 446 kts 297°
2026-05-07 10:34 55.12229 -1.94986 26070 ft 446 kts 297°
2026-05-07 10:34 55.13714 -1.99700 26013 ft 435 kts 298°
2026-05-07 10:34 55.15194 -2.04191 25983 ft 417 kts 299°
2026-05-07 10:34 55.16611 -2.08427 25990 ft 400 kts 299°
2026-05-07 10:35 55.18005 -2.12596 25997 ft 384 kts 298°
2026-05-07 10:35 55.19306 -2.16510 25983 ft 370 kts 298°
2026-05-07 10:35 55.20580 -2.20370 25996 ft 365 kts 298°
2026-05-07 10:35 55.21849 -2.24236 26012 ft 369 kts 298°
2026-05-07 10:36 55.23135 -2.28172 26012 ft 374 kts 298°
2026-05-07 10:36 55.24423 -2.32121 26014 ft 371 kts 297°
2026-05-07 10:36 55.25687 -2.35999 25837 ft 363 kts 297°
2026-05-07 10:36 55.26933 -2.39831 25463 ft 361 kts 297°
2026-05-07 10:37 55.28176 -2.43663 24977 ft 362 kts 297°
2026-05-07 10:37 55.29420 -2.47504 24530 ft 362 kts 297°
2026-05-07 10:37 55.30658 -2.51333 24158 ft 359 kts 297°
2026-05-07 10:37 55.31887 -2.55137 23805 ft 357 kts 297°
2026-05-07 10:38 55.33106 -2.58918 23412 ft 355 kts 297°
2026-05-07 10:38 55.34317 -2.62680 22981 ft 353 kts 297°
2026-05-07 10:38 55.35519 -2.66419 22562 ft 351 kts 297°
2026-05-07 10:38 55.36713 -2.70137 22168 ft 348 kts 297°
2026-05-07 10:39 55.37882 -2.73787 21778 ft 345 kts 297°
2026-05-07 10:39 55.39072 -2.77505 21391 ft 343 kts 297°
2026-05-07 10:39 55.40224 -2.81113 20980 ft 342 kts 297°
2026-05-07 10:39 55.41384 -2.84748 20606 ft 340 kts 296°
2026-05-07 10:40 55.42537 -2.88366 20251 ft 337 kts 296°
2026-05-07 10:40 55.43681 -2.91962 19900 ft 335 kts 296°
2026-05-07 10:40 55.44816 -2.95536 19535 ft 333 kts 296°
2026-05-07 10:40 55.45925 -2.99103 19180 ft 330 kts 292°
2026-05-07 10:41 55.46565 -3.02934 18796 ft 325 kts 278°
2026-05-07 10:41 55.46958 -3.06843 18488 ft 322 kts 278°
2026-05-07 10:41 55.47343 -3.10720 18111 ft 321 kts 278°
2026-05-07 10:41 55.47735 -3.14574 17842 ft 315 kts 278°
2026-05-07 10:42 55.48118 -3.18263 17702 ft 306 kts 278°
2026-05-07 10:42 55.48505 -3.21933 17411 ft 303 kts 278°
2026-05-07 10:42 55.48890 -3.25571 17057 ft 301 kts 278°
2026-05-07 10:42 55.49273 -3.29198 16665 ft 301 kts 278°
2026-05-07 10:43 55.49656 -3.32824 16303 ft 300 kts 278°
2026-05-07 10:43 55.50230 -3.36355 15960 ft 304 kts 292°
2026-05-07 10:43 55.51294 -3.39578 15675 ft 303 kts 297°
2026-05-07 10:43 55.52411 -3.42731 15334 ft 303 kts 297°
2026-05-07 10:44 55.53531 -3.45880 14968 ft 302 kts 297°
2026-05-07 10:44 55.54642 -3.49028 14640 ft 302 kts 297°
2026-05-07 10:44 55.55747 -3.52184 14224 ft 303 kts 297°
2026-05-07 10:44 55.56853 -3.55367 13814 ft 305 kts 297°
2026-05-07 10:45 55.57947 -3.58528 13369 ft 305 kts 297°
2026-05-07 10:45 55.59050 -3.61724 12912 ft 304 kts 297°
2026-05-07 10:45 55.60145 -3.64902 12452 ft 302 kts 297°
2026-05-07 10:45 55.61227 -3.68053 12013 ft 298 kts 296°
2026-05-07 10:46 55.62295 -3.71171 11582 ft 295 kts 296°
2026-05-07 10:46 55.63353 -3.74259 11135 ft 292 kts 297°
2026-05-07 10:46 55.64401 -3.77312 10707 ft 289 kts 297°
2026-05-07 10:46 55.65431 -3.80336 10294 ft 286 kts 297°
2026-05-07 10:47 55.66455 -3.83348 9858 ft 283 kts 297°
2026-05-07 10:47 55.67469 -3.86313 9393 ft 281 kts 297°
2026-05-07 10:47 55.68469 -3.89269 8950 ft 278 kts 296°
2026-05-07 10:47 55.69477 -3.92185 8535 ft 277 kts 302°
2026-05-07 10:48 55.70926 -3.94473 8131 ft 286 kts 328°
2026-05-07 10:48 55.72756 -3.95739 7778 ft 286 kts 338°
2026-05-07 10:48 55.74647 -3.96790 7375 ft 284 kts 339°
2026-05-07 10:48 55.76532 -3.97807 7005 ft 282 kts 339°
2026-05-07 10:49 55.78407 -3.98811 6641 ft 280 kts 339°
2026-05-07 10:49 55.80268 -3.99801 6261 ft 279 kts 339°
2026-05-07 10:49 55.82126 -4.00785 5862 ft 277 kts 339°
2026-05-07 10:49 55.83969 -4.01757 5467 ft 276 kts 339°
2026-05-07 10:50 55.85806 -4.02720 5073 ft 275 kts 339°
2026-05-07 10:50 55.87640 -4.03675 4701 ft 273 kts 339°
2026-05-07 10:50 55.89460 -4.04618 4304 ft 272 kts 339°
2026-05-07 10:50 55.91268 -4.05566 4008 ft 268 kts 339°
2026-05-07 10:51 55.93032 -4.06490 3743 ft 262 kts 339°
2026-05-07 10:51 55.94680 -4.07591 3508 ft 248 kts 321°
2026-05-07 10:51 55.95758 -4.09679 3486 ft 216 kts 287°
2026-05-07 10:51 55.96135 -4.12110 3503 ft 199 kts 274°
2026-05-07 10:52 55.96398 -4.14568 3301 ft 203 kts 274°
2026-05-07 10:52 55.96656 -4.17013 3066 ft 196 kts 274°
2026-05-07 10:52 55.96795 -4.19308 2956 ft 176 kts 259°
2026-05-07 10:52 55.96671 -4.21469 2680 ft 173 kts 258°
2026-05-07 10:53 55.96579 -4.23597 2452 ft 171 kts 258°
2026-05-07 10:53 55.96395 -4.25651 2179 ft 164 kts 237°
2026-05-07 10:53 55.95713 -4.27221 2078 ft 163 kts 226°
2026-05-07 10:53 55.94978 -4.28739 1989 ft 160 kts 224°
2026-05-07 10:54 55.94249 -4.30134 1883 ft 150 kts 223°
2026-05-07 10:54 55.93547 -4.31450 1713 ft 144 kts 222°
2026-05-07 10:54 55.92861 -4.32724 1524 ft 140 kts 222°
2026-05-07 10:54 55.92209 -4.33949 1338 ft 135 kts 222°
2026-05-07 10:55 55.91563 -4.35159 1166 ft 137 kts 221°
2026-05-07 10:55 55.90884 -4.36419 975 ft 145 kts 223°
2026-05-07 10:55 55.90191 -4.37724 767 ft 144 kts 222°
2026-05-07 10:55 55.89523 -4.39008 567 ft 138 kts 223°
2026-05-07 10:56 55.88865 -4.40219 374 ft 135 kts 223°
2026-05-07 10:56 55.88198 -4.41461 172 ft 144 kts 222°
2026-05-07 10:56 55.87524 -4.42713 28 ft 131 kts 222°
2026-05-07 10:56 55.87041 -4.43618 28 ft 70 kts 226°
2026-05-07 10:57 55.86822 -4.44026 28 ft 35 kts 227°
2026-05-07 10:57 55.86702 -4.44249 28 ft 19 kts 222°
2026-05-07 10:57 55.86622 -4.44224 28 ft 6 kts 111°
2026-05-07 10:57 55.86618 -4.44160 28 ft 0 kts 90°
2026-05-07 10:59 55.86618 -4.44121 28 ft 8 kts 90°
2026-05-07 10:59 55.86572 -4.44040 28 ft 13 kts 173°
2026-05-07 10:59 55.86489 -4.43975 28 ft 12 kts 151°
2026-05-07 11:00 55.86435 -4.43919 28 ft 4 kts 132°
2026-05-07 11:00 55.86434 -4.43894 28 ft 2 kts 76°
2026-05-07 11:00 55.86447 -4.43848 28 ft 7 kts 61°
2026-05-07 11:00 55.86466 -4.43787 28 ft 1 kts 62°
2026-05-07 11:01 55.86467 -4.43783 28 ft 0 kts 61°